MALLIGYONG-1

Satellite information

Favourite Embed

Satellite Type and Status

PAYLOADIN ORBIT

Key statistics

Satellite MALLIGYONG-1 at a glance.

Uptime

594

Days in orbit

Revolutions

≈ 15.2

Per day

Orbit

SSO

Sun Synchronous Orbit

Inclination

97.4

Latest

Satellite identification and parameters

Extended collection of information and parameters for MALLIGYONG-1.

Object identification

Identified? True

Debris? False

Object name: MALLIGYONG-1

International designator: 2023-179A

Object number (NORAD): 58400

Object ID (CCSDS): 58400

Country: NORTH KOREA (NKOR)

Current information (Y/N): Y

RCS size: MEDIUM

Orbital parameters

Period: 94.567 minutes

Inclination: 97.3541 deg

SMA: 6875.727 km

Apoapsis: 499.454 km

Periapsis: 495.73 km

RAAN: 73.3375 deg

Eccentricy: 0.0002708

Argument of periapsis: 296.6718 deg

Mean anomaly: 63.4241 deg

Mean motion: 15.22736789 rev/day

Mean motion (dot): 0.00002746 rev/day2

B* drag term: 0.00012066 1/REarth

Two-line elements (TLE)

Creation date: July 6, 2025, 11:06 p.m.

Reference frame: TEME

Reference center: EARTH

Epoch: July 6, 2025, 9:25 p.m. UTC

TLE line 0: 0 MALLIGYONG-1

TLE line 1: 1 58400U 23179A 25187.89278382 .00002746 00000-0 12066-3 0 9996

TLE line 2: 2 58400 97.3541 73.3375 0002708 296.6718 63.4241 15.22736789 90236

Live tracking on map

Real-time ground track for satellite MALLIGYONG-1.

In-orbit conjunctions

There are no conjunctions computed for MALLIGYONG-1, at the moment. Check back to stay up to date, as we update our databases every day.

Go to all conjunctions

Associated space launch

Malligyong-1c (meaning "Telescope-1") is the third attempt by North Korea to launch a satellite officially declared to be for military reconnaissance purposes, and the first successful one. It became the third North Korean satellite to reach orbit.

MALLIGYONG-1 was lifted into orbit during the mission ‘Chollima-1 | Malligyong-1c’, on board a Chollima-1 space rocket.

The launch took place on Nov. 21, 2023, 1:42 p.m. from Malligyong-1 Pad.

For more information about the launch, click the button.

Launch to space Chollima-1 | Malligyong-1c
Chollima-1 | Malligyong-1c

Agency: National Aerospace Development Administration

Status: Launch Successful

Launch date: Nov. 21, 2023, 1:42 p.m. UTC

Rocket: Chollima-1

Launch pad: Malligyong-1 Pad

Location: Sohae Satellite Launching Station, Cholsan County, North Pyongan Province, Democratic People's Republic of Korea

...

Latest news about this satellite

News about space launch
North Korea Launches First Domestic Spysat

2023 has been a remarkable time for international spaceflight, but spaceflight does not exist in a vacuum beyond geopolitics, and while some achievements can be hailed on the international stage, others are the grounds for concern and suspicion. This fact...

News about space launch
Rocket Report: Beyond Gravity to study fairing reuse; North Korea launches satellite

"I conclude the objects are the spy satellite and the rocket upper stage."


Newsletter sign-up

Weekly statistics, charts and insights to help you stay on top of the space industry.